Weather Roundup
Issued by NWS

Home | Current Version | Previous Version | Graphics & Text | Print | Product List | Glossary Off
Versions: 1 2 3 4 5 6 7 8 9 10 11 12 13 14 15 16 17 18 19 20 21 22 23 24 25 26 27 28 29 30 31 32 33 34 35 36 37 38 39 40 41 42 43 44 45 46 47 48 49 50

114
NZUS93 KARX 211910
HRRWXR

CURRENT HOURLY OBSERVATIONS ACROSS
MUCH OF THE UPPER MISSISSIPPI VALLEY
NATIONAL WEATHER SERVICE LA CROSSE WI
200 PM CDT SAT APR 21 2018


...SOUTHEAST MINNESOTA...


CITY           SKY/WX    TMP DP  RH WIND       PRES   REMARKS
ROCHESTER      CLOUDY    47  35  63 S8        30.40R
ROCHESTER/MAYO CLOUDY    50  29  44 S9        30.40R
WINONA         PTSUNNY   59  32  36 S5        30.37F
AUSTIN         CLOUDY    45  36  70 CALM      30.38F
ALBERT LEA     CLOUDY    48  28  46 CALM      30.37F
DODGE CENTER   PTSUNNY   46  36  66 S7        30.39S
PRESTON        CLOUDY    48  33  55 CALM      30.39F
OWATONNA       FAIR      52  36  54 S8        30.39R
FARIBAULT      NOT AVBL
$$

...ELSEWHERE IN MINNESOTA...


CITY           SKY/WX    TMP DP  RH WIND       PRES   REMARKS
MINNEAPOLIS    FAIR      57  19  22 NW5       30.37F
INTNL FALLS    FAIR      58  24  27 S8        30.31F
DULUTH         FAIR      54  22  28 SW12      30.35F
RED WING       FAIR      57  23  26 S6        30.37F
REDWOOD FALLS  CLOUDY    50  32  50 S8        30.37F
MANKATO        PTSUNNY   51  34  52 CALM      30.39S
WORTHINGTON    CLOUDY    43  35  73 NE7       30.35F
FAIRMONT       CLOUDY    39  31  72 E3        30.38
$$

...SOUTHWEST WISCONSIN...


CITY           SKY/WX    TMP DP  RH WIND       PRES   REMARKS
LA CROSSE      CLOUDY    55  34  45 S13       30.40F
PRAIRIE DU CHI CLOUDY    51  35  54 E6        30.41F
BOSCOBEL       CLOUDY    54  36  50 CALM      30.42F
LONE ROCK      CLOUDY    54  34  46 VRB3      30.42F
PLATTEVILLE    CLOUDY    51  38  59 E9        30.41F
FORT MC COY    PTSUNNY   57  30  35 S6        30.41S
CAMP DOUGLAS   PTSUNNY   55  27  33 SW5       30.39F
MAUSTON-NEW LI FAIR      56  27  32 S8        30.40S
VIROQUA        MOCLDY    49  36  62 CALM      30.41F
WIS DELLS      CLOUDY    50  26  39 SW7       30.42S
$$

...ELSEWHERE IN WISCONSIN...


CITY           SKY/WX    TMP DP  RH WIND       PRES   REMARKS
MILWAUKEE      PTSUNNY   54  23  30 E5        30.43F
MADISON        CLOUDY    51  33  50 SW7       30.43S
GREEN BAY      FAIR      50  23  34 S7        30.42S
EAU CLAIRE     FAIR      57  30  35 W6        30.36F
BLACK RVR FLS  FAIR      58  27  30 S5        30.38F
MEDFORD        FAIR      50  22  33 SE6       30.37F
WAUSAU         FAIR      53  23  31 W8        30.36F
WIS RAPIDS     FAIR      55  24  30 CALM      30.40F
MARSHFIELD     FAIR      53  29  39 NW6       30.37F
RICE LAKE      FAIR      52  19  26 SW6       30.39F
$$

...NORTHEAST IOWA...


CITY           SKY/WX    TMP DP  RH WIND       PRES   REMARKS
WATERLOO       FAIR      56  30  37 E14       30.36F
DUBUQUE        CLOUDY    52  34  50 E13       30.39F
DECORAH        CLOUDY    50  36  57 E6        30.39S
MASON CITY     CLOUDY    48  38  68 NE12      30.37F
CHARLES CITY   FAIR      57  36  44 E10G16    30.37F
OELWEIN        FAIR      55  32  41 SE16      30.38S
$$

...ELSEWHERE IN IOWA...


CITY           SKY/WX    TMP DP  RH WIND       PRES   REMARKS
DES MOINES     CLOUDY    57  25  29 E10       30.31F
IOWA CITY      FAIR      59  24  26 SE10      30.36F
FORT DODGE     PTSUNNY   60  30  32 SE9G20    30.32F
MARSHALLTOWN   MOSUNNY   60  29  30 SE13      30.33F
CEDAR RAPIDS   FAIR      60  24  25 SE15      30.34F
$$

...NORTHERN ILLINOIS...


CITY           SKY/WX    TMP DP  RH WIND       PRES   REMARKS
CHICAGO-OHARE  CLOUDY    52  26  36 N6        30.42R
CHICAGO-MIDWAY CLOUDY    49  27  42 E5        30.43R
MOLINE         FAIR      60  29  30 E17       30.34F
ROCKFORD       LGT RAIN  54  33  45 NE7       30.44F
PEORIA         FAIR      62  27  26 E14       30.35F
$$

NOTE: "FAIR" INDICATES FEW OR NO CLOUDS BELOW 12,000 FEET WITH NO
SIGNIFICANT WEATHER AND/OR OBSTRUCTIONS TO VISIBILITY. WIND
SPEEDS ARE IN MILES-PER-HOUR.




USA.gov is the U.S. government's official web portal to all federal, state and local government web resources and services.